Theta_e
310 309 309 308 307 306 305 304 305 305 305 305 305 305 305 305 305 304 304 303 303 303 303 303 303 303 302 303 303 303 303 303 303 303 303 303 303 303 303 303 303 302 303 302 302 302 303 303 303 303 303 303
310 309 309 308 307 305 305 305 305 305 305 305 305 305 305 305 305 304 303 303 303 303 302 302 302 302 302 302 302 302 303 303 303 303 303 303 303 303 303 303 302 302 302 302 302 302 302 302 302 302 303 303
310 310 309 309 308 306 305 305 305 305 305 305 305 305 306 306 305 304 303 303 303 302 302 302 302 302 302 302 302 302 303 303 304 304 304 304 304 304 303 303 302 302 302 301 301 301 301 301 302 302 302 302
310 310 309 309 308 306 305 305 305 305 305 305 305 305 305 305 305 304 303 303 302 302 302 302 302 302 302 302 303 303 303 304 304 304 304 304 304 304 304 304 303 303 303 302 302 302 301 301 301 301 301 301
311 310 309 309 308 307 306 305 305 305 304 304 304 305 305 305 305 304 303 302 302 302 302 302 302 302 302 303 303 303 304 304 304 304 304 304 304 304 304 304 304 304 304 303 303 303 302 302 301 301 301 301
311 310 309 309 309 307 306 305 305 305 305 304 304 305 306 306 306 305 304 303 302 302 302 302 302 302 302 303 303 303 304 304 304 304 304 304 304 304 304 304 305 304 304 304 304 303 303 302 301 301 301 301
311 310 309 309 308 308 306 305 305 305 305 305 304 305 306 306 306 305 305 304 303 302 302 302 302 303 303 303 303 304 304 304 304 304 304 304 304 304 304 304 305 305 305 305 305 304 303 303 302 302 301 301
310 310 309 309 308 308 306 305 305 305 305 305 304 305 306 306 306 306 306 305 303 303 303 303 303 303 303 304 304 304 304 304 303 303 303 304 304 304 304 304 304 305 305 305 305 305 304 303 302 302 302 301
311 310 310 309 308 308 307 305 304 304 304 304 304 304 305 305 306 306 306 306 304 303 303 303 304 304 304 304 304 304 303 303 303 303 303 303 303 303 304 304 304 304 305 305 305 304 304 303 302 302 302 301
310 310 310 309 309 308 308 306 304 304 303 303 304 304 304 304 305 306 306 306 305 304 303 304 304 304 304 303 303 303 303 303 303 303 303 303 303 303 303 303 304 304 304 304 304 304 304 303 302 301 301 301
310 310 310 309 309 308 308 306 304 303 303 303 304 304 304 304 304 305 306 306 306 304 303 303 304 303 303 303 303 303 303 303 303 303 303 303 303 303 303 303 303 304 304 304 303 303 302 302 301 300 300 300
310 310 309 309 308 308 307 307 305 304 303 303 303 304 304 303 303 304 304 305 305 304 303 303 303 303 303 303 303 303 303 302 302 302 302 302 302 302 302 303 303 303 303 303 302 301 300 300 300 300 300 300
310 310 309 309 309 308 308 307 306 304 302 302 303 303 303 303 303 303 303 305 305 304 303 303 303 303 303 302 303 302 302 302 302 302 302 302 302 302 302 302 302 303 303 302 302 301 300 299 299 299 299 299
310 310 309 309 309 308 308 307 307 305 303 302 302 302 302 302 302 302 303 304 304 304 303 303 303 302 302 302 302 302 302 302 302 302 302 302 302 302 302 302 302 302 302 302 301 300 300 299 299 299 299 299
311 310 310 309 309 308 308 307 307 306 304 302 302 302 302 302 302 302 302 303 303 303 303 303 302 302 302 302 302 302 302 302 301 302 302 302 302 302 302 302 302 302 302 302 301 300 300 299 299 298 298 299
311 311 310 309 309 308 308 307 307 306 305 303 302 302 302 301 302 302 302 303 303 303 303 302 302 302 302 302 302 302 301 301 301 301 301 301 301 301 301 301 302 302 302 301 301 300 299 299 298 298 298 298
311 311 310 309 308 308 307 307 306 306 306 304 302 302 301 301 301 302 302 303 303 302 302 302 302 302 302 302 301 301 301 301 301 301 301 301 301 301 301 301 301 301 301 301 300 300 299 299 298 298 297 298
311 310 310 309 308 308 307 307 306 306 305 304 303 302 301 301 302 302 302 302 302 302 302 301 301 301 301 301 301 301 301 301 301 301 301 301 301 301 301 301 301 301 301 301 301 300 300 299 298 298 297 298
311 310 309 309 308 308 307 306 306 306 305 304 303 302 302 302 302 302 302 302 302 302 301 301 301 301 301 301 301 301 301 301 301 300 300 300 300 300 300 300 301 301 301 301 301 301 300 299 298 298 297 298
310 310 309 308 308 307 307 306 306 305 305 305 304 303 303 303 303 302 302 302 301 301 301 301 301 301 301 301 301 301 301 300 300 300 300 300 300 300 300 300 300 300 301 301 301 301 300 299 299 298 298 298
309 309 308 308 307 306 306 306 306 305 304 304 304 304 304 303 303 302 302 301 301 301 301 300 301 301 301 301 301 300 300 300 300 300 300 300 300 299 299 299 300 300 300 301 301 301 300 299 298 297 298 298
309 308 308 307 307 306 305 305 305 304 304 304 304 304 304 303 303 301 301 301 301 300 300 300 300 300 300 300 300 300 300 300 300 300 300 299 299 299 299 299 299 300 300 301 301 301 300 298 297 297 297 297
308 307 307 306 306 304 304 304 304 304 304 304 304 304 303 302 302 301 300 300 300 300 300 300 300 300 300 300 300 300 300 300 299 299 299 299 299 299 299 299 299 299 300 300 300 300 299 298 297 296 296 297
307 306 306 305 305 304 304 304 304 303 303 303 303 303 303 302 301 300 300 300 299 299 299 299 300 300 300 300 300 299 299 299 299 299 299 299 298 298 298 298 298 299 299 299 300 300 299 297 297 296 296 297
308 307 306 306 306 306 306 305 304 304 303 303 303 303 302 302 301 300 299 299 299 299 299 299 299 299 300 300 299 299 299 299 299 299 298 298 298 298 298 297 297 297 298 298 299 300 300 298 297 296 296 296
309 308 308 308 308 308 307 306 306 305 305 304 303 303 302 302 300 300 299 299 299 299 299 299 299 299 299 299 299 299 299 298 298 298 298 298 298 298 297 297 297 296 296 296 297 298 300 299 297 296 296 296
310 309 308 308 308 308 307 306 306 306 305 304 303 303 302 302 300 299 299 299 299 299 299 299 299 299 299 299 299 299 298 298 298 298 298 298 298 297 297 297 296 295 295 295 294 294 295 296 296 295 295 295
309 308 307 307 306 306 306 306 305 304 304 303 303 302 302 302 300 299 299 298 298 298 298 298 298 299 299 299 298 298 298 298 298 298 298 297 297 297 297 297 296 295 294 293 293 293 292 293 293 293 293 294
308 307 306 305 305 304 304 304 303 304 304 304 303 303 303 302 301 299 298 298 298 298 298 298 298 298 298 298 298 298 298 298 298 297 297 297 297 297 296 296 296 294 293 292 292 291 291 291 291 291 291 292
308 308 307 306 305 305 304 304 304 305 306 306 305 305 304 302 301 300 298 298 298 298 298 298 298 298 298 298 298 298 298 297 297 297 297 297 296 296 296 296 296 294 292 291 290 290 290 290 290 290 290 289
308 308 307 306 306 306 306 306 307 308 307 306 306 305 304 303 301 300 299 298 298 297 297 297 298 298 298 298 297 297 297 297 297 297 297 296 296 296 296 296 296 294 293 291 290 290 289 289 289 289 289 288
Wind_Speed
19 19 18 18 17 17 17 16 15 14 13 11 9 7 6 5 5 5 5 5 5 5 5 5 5 4 3 3 2 1 1 1 2 3 3 4 4 5 5 5 6 6 5 5 5 5 6 5 5 5 5 5
20 19 19 18 18 18 17 17 16 15 13 11 9 7 6 5 4 5 5 6 6 6 6 6 5 4 3 3 2 1 1 2 2 3 4 4 5 6 7 7 8 8 8 7 7 6 6 6 6 5 5 5
21 20 19 18 18 18 18 18 17 16 14 12 10 7 5 5 4 5 5 5 6 6 6 5 5 4 3 2 2 1 1 1 2 3 4 5 6 7 8 9 9 10 10 10 9 9 8 7 7 6 6 6
23 21 20 19 18 18 18 18 18 17 15 12 10 8 6 5 5 5 5 5 6 6 5 5 4 4 3 3 2 2 2 3 4 5 6 7 8 10 10 11 11 11 11 11 11 11 10 9 8 8 7 6
24 23 22 21 20 19 19 19 18 17 15 13 10 8 6 5 4 4 4 5 5 5 5 5 5 4 4 4 4 3 4 5 6 7 8 10 11 12 13 13 14 14 14 14 13 13 12 11 11 10 9 8
26 25 23 22 22 21 20 20 19 18 16 14 11 9 7 5 4 4 4 5 5 5 5 5 5 5 4 4 4 5 6 7 9 10 11 13 14 15 15 16 16 16 16 16 15 15 14 13 12 12 11 10
27 26 25 24 23 22 21 21 20 19 17 15 13 11 9 7 5 5 6 6 6 6 6 6 6 6 6 6 6 7 8 10 11 12 14 15 16 17 17 18 18 18 18 17 17 16 15 14 13 13 12 11
29 27 26 26 25 23 23 22 21 20 19 17 15 13 11 9 7 7 7 8 8 8 8 8 8 8 8 8 9 10 10 11 12 14 15 16 17 17 18 18 19 19 19 18 18 17 16 15 14 14 13 12
30 29 28 28 26 25 24 23 23 22 20 19 17 15 13 11 10 9 9 9 9 10 10 10 10 10 10 10 10 11 11 12 13 14 16 16 17 17 18 19 19 19 19 19 18 17 16 15 15 14 13 13
31 31 29 29 28 27 26 25 24 23 22 21 19 18 16 14 13 12 11 11 11 11 12 12 12 12 11 11 11 12 12 13 14 15 16 16 17 18 18 19 19 19 19 18 17 17 16 15 15 14 13 13
33 32 31 30 29 28 27 26 26 25 23 22 21 20 18 17 15 14 13 13 13 13 13 13 13 13 13 13 13 13 13 14 14 15 16 16 17 17 18 18 18 18 18 17 16 15 15 15 14 14 13 13
35 34 32 32 31 29 28 27 27 25 24 24 23 21 19 18 17 16 15 15 14 14 15 15 15 14 14 14 14 14 14 14 14 15 16 16 17 17 17 17 17 16 16 16 14 14 14 13 13 13 13 13
37 36 35 34 33 32 30 29 27 25 25 25 24 22 20 19 18 17 16 16 16 16 16 16 16 15 15 14 14 14 14 15 15 15 16 17 17 17 17 16 15 15 15 14 14 13 13 13 12 12 12 12
38 37 37 36 35 33 32 30 28 27 26 26 25 23 21 20 18 17 17 17 17 17 17 17 17 16 15 15 15 14 14 15 15 16 17 17 18 18 17 16 15 14 14 14 14 13 13 13 12 12 12 12
38 38 39 37 36 34 33 32 30 29 28 27 26 24 22 21 19 19 19 19 19 19 19 18 17 17 15 15 15 15 15 15 15 16 17 17 18 18 17 17 16 15 14 14 14 13 13 13 12 12 12 12
38 39 39 38 37 36 34 33 32 30 29 28 27 25 24 22 21 21 21 20 20 20 20 19 18 17 16 15 15 15 15 15 16 16 17 18 18 18 17 17 17 16 15 14 14 14 13 13 13 12 12 12
38 39 39 39 38 36 35 34 32 31 29 29 28 27 25 23 23 22 22 22 21 22 21 20 19 17 17 16 16 16 16 16 16 16 17 17 17 17 17 17 17 16 16 15 15 15 14 14 14 13 13 12
37 39 39 39 38 37 36 35 33 31 30 30 29 28 26 25 25 24 24 23 23 23 22 21 20 18 18 17 17 16 16 16 15 16 16 17 17 17 17 17 17 17 16 16 16 16 15 15 14 14 13 12
37 38 38 38 38 38 37 36 34 33 31 30 30 29 28 27 26 25 25 24 24 24 23 22 21 20 19 18 18 17 16 15 15 15 16 16 17 17 17 17 18 17 17 17 17 16 16 15 14 13 13 12
36 36 37 37 37 38 38 37 35 34 32 31 30 30 29 28 27 27 26 25 25 25 24 23 21 21 20 19 18 17 16 15 15 15 16 16 17 17 17 17 17 18 18 18 17 17 16 15 14 13 12 11
36 36 36 35 36 37 38 37 36 34 33 32 32 31 30 29 28 28 27 27 27 26 25 23 22 22 21 20 19 18 17 16 16 16 16 17 17 17 17 17 18 18 18 18 17 17 15 14 13 12 11 9
37 36 35 34 35 37 38 38 36 35 34 33 33 32 31 30 29 29 28 28 28 27 26 24 23 22 21 21 20 18 17 16 16 16 16 16 17 17 18 18 18 19 18 18 18 16 15 13 12 11 10 7
37 36 35 35 35 37 38 38 37 36 36 35 34 33 31 30 30 30 29 29 29 28 27 26 24 23 22 22 20 19 17 16 15 14 14 15 16 17 18 18 19 19 19 18 18 17 15 13 12 11 9 6
40 38 36 36 36 38 39 40 39 38 37 37 35 33 32 31 31 31 30 30 30 29 27 26 25 24 24 22 21 19 17 16 14 13 14 15 15 16 17 18 19 19 19 19 19 18 14 13 13 10 8 3
42 40 38 37 37 38 39 40 41 40 39 38 36 34 33 32 32 32 32 31 31 30 28 27 26 26 25 23 22 20 18 16 14 13 14 14 15 16 16 17 17 18 19 19 20 19 16 14 11 9 6 4
43 41 39 37 36 36 38 40 40 40 39 39 37 36 34 33 33 33 33 32 31 30 30 29 28 27 26 24 23 21 19 16 14 13 13 14 15 15 16 16 16 16 18 18 19 20 21 17 12 9 5 5
43 41 39 37 35 35 36 38 39 38 38 38 38 37 36 35 35 35 34 33 32 32 31 30 29 28 27 25 24 21 19 16 14 13 13 13 14 15 15 15 15 15 16 16 18 20 21 21 17 10 2 8
43 41 39 38 36 35 35 36 37 38 39 39 39 39 38 37 36 36 35 34 33 33 32 31 30 29 28 26 24 22 19 16 14 13 12 12 13 14 15 15 15 15 15 15 17 18 18 19 16 8 8 21
43 43 42 40 38 37 37 37 38 40 41 42 42 41 40 38 37 37 36 35 35 34 33 32 31 30 29 27 25 22 19 17 15 13 11 11 12 14 15 15 15 15 14 14 15 16 15 12 11 13 21 28
44 44 43 42 41 40 40 40 41 42 42 42 42 41 41 39 37 37 37 37 36 35 34 34 33 32 30 28 26 23 20 18 15 13 11 11 11 13 15 15 15 15 14 14 14 15 14 12 13 19 25 24
45 44 43 43 41 40 40 41 41 41 41 41 40 40 40 39 38 38 38 38 37 37 35 35 34 33 31 29 26 24 21 19 15 12 11 10 11 13 16 16 16 15 14 14 14 14 15 14 15 18 20 20
Wind_Direction
203 201 197 195 193 191 188 186 183 181 178 177 175 175 175 176 176 174 171 170 171 170 169 168 167 167 163 162 162 170 282 314 321 321 324 327 328 328 326 324 324 322 320 316 316 316 314 312 308 304 296 291
207 204 200 196 193 191 189 187 186 184 182 182 181 180 181 180 180 177 174 173 173 173 174 174 174 176 174 178 181 203 279 314 322 331 333 338 338 339 339 337 337 334 332 329 323 319 313 309 306 301 295 288
212 208 204 199 196 193 192 191 189 188 187 186 185 185 186 187 187 184 184 183 184 184 183 184 184 187 191 199 202 227 259 297 314 330 334 339 341 341 342 340 339 336 333 331 326 323 318 313 309 302 297 290
214 211 208 202 200 198 197 195 193 191 190 188 188 189 190 190 191 189 194 197 201 202 202 203 204 211 213 227 241 260 283 305 319 329 333 335 338 338 338 337 335 333 329 326 322 320 318 314 310 305 300 292
215 213 211 206 203 202 201 200 197 195 192 191 191 193 197 197 198 198 207 210 214 216 218 221 221 226 230 241 259 278 297 310 319 324 329 330 331 332 332 333 332 331 328 324 320 316 314 311 307 304 299 292
217 214 213 210 206 205 205 204 201 199 196 195 196 200 207 210 218 224 232 234 236 237 235 238 240 248 254 263 278 293 305 314 319 321 324 324 324 325 325 325 326 325 323 321 318 314 310 306 303 300 297 293
219 217 215 213 210 207 208 207 205 203 201 200 201 207 213 219 227 237 246 250 252 254 253 256 263 270 276 285 295 304 313 317 319 320 319 318 317 317 317 318 317 317 317 315 313 310 306 301 296 294 292 290
223 220 217 217 215 211 210 210 208 207 205 203 205 210 214 218 226 237 246 252 255 256 260 264 269 273 281 289 298 304 310 312 313 313 312 311 310 310 310 309 310 310 310 310 309 307 304 299 294 290 287 285
227 224 221 220 219 216 213 213 212 210 208 205 208 211 212 216 223 235 244 252 255 256 260 263 267 272 278 285 291 296 300 303 304 304 304 303 302 302 302 303 303 304 306 307 306 305 303 300 296 292 289 286
230 228 225 224 223 221 217 216 215 213 210 208 210 212 213 219 225 234 242 249 252 254 256 258 263 267 272 278 283 286 290 293 295 296 297 298 298 299 299 301 302 303 306 308 308 306 303 300 297 295 292 289
230 229 227 227 226 225 222 219 218 216 213 213 215 217 218 224 229 234 240 245 248 250 252 254 259 262 268 273 277 280 283 286 288 291 293 295 297 299 301 303 306 308 310 311 311 308 304 300 297 296 294 291
230 229 228 228 228 226 224 223 223 221 218 219 221 221 223 226 230 234 239 242 244 246 247 250 254 259 264 269 273 276 279 281 284 287 290 294 297 300 303 305 309 311 313 313 312 308 303 299 296 294 293 292
232 230 229 229 229 228 226 226 225 224 222 223 224 224 225 227 231 235 238 241 242 243 244 247 251 256 261 265 269 271 274 277 280 285 289 293 297 300 303 307 311 314 314 313 311 307 301 297 294 292 292 291
233 232 231 231 231 229 229 228 226 225 224 225 226 226 227 228 232 235 238 241 241 241 242 244 249 254 258 262 265 267 270 272 276 282 286 291 296 300 303 306 310 314 315 313 312 308 303 299 296 294 294 293
235 234 234 234 233 231 230 229 227 226 226 227 227 228 228 230 232 235 238 240 240 240 241 243 247 251 255 258 261 262 265 269 274 279 284 289 294 298 302 305 308 312 314 314 312 309 306 303 300 298 296 295
237 236 235 234 233 232 231 229 229 228 227 228 229 229 229 230 233 236 238 239 240 239 239 242 245 249 252 254 257 258 262 267 272 278 285 289 293 298 301 304 308 312 314 314 312 309 308 305 304 304 302 300
238 237 236 235 234 233 232 230 229 229 228 229 230 231 231 232 234 236 238 239 239 239 238 241 243 247 249 251 253 255 260 265 272 280 287 292 295 297 300 304 307 310 313 313 312 310 310 308 308 308 307 304
237 237 235 234 233 232 232 231 230 229 228 229 230 231 232 233 235 237 238 238 238 238 238 240 242 245 246 248 249 252 258 264 273 281 288 292 294 295 297 299 302 307 310 311 311 311 311 311 310 310 308 305
236 236 235 233 232 231 231 230 230 230 228 229 230 231 233 234 235 237 238 237 237 237 237 239 241 243 244 245 246 250 256 263 272 281 287 289 291 293 295 297 300 303 306 309 310 312 313 312 311 309 306 306
236 235 234 233 231 230 230 230 230 230 228 229 230 231 233 234 235 236 237 236 235 235 236 237 238 240 241 242 244 248 253 261 271 280 286 289 291 294 296 299 301 302 305 308 309 313 313 310 310 306 303 306
236 234 234 232 230 229 229 229 230 229 228 228 229 230 232 234 235 235 235 234 234 234 234 235 236 237 238 238 240 244 251 259 270 281 288 292 294 296 299 300 301 301 302 305 307 311 311 308 308 304 302 304
236 234 232 231 229 228 229 229 230 229 228 228 228 230 231 232 234 234 233 233 233 233 233 233 233 234 234 235 238 242 249 258 269 280 288 294 297 298 299 298 299 300 301 303 305 307 308 308 307 303 300 295
235 232 230 229 227 227 228 228 229 228 228 228 228 229 229 231 233 233 233 233 233 232 232 232 232 232 232 234 237 242 249 258 267 278 288 296 299 298 298 297 298 300 302 305 306 308 311 311 307 301 298 286
231 229 226 225 225 225 226 226 227 227 227 227 227 227 228 230 231 232 233 232 232 232 232 232 232 232 232 234 238 242 248 255 264 277 291 298 299 298 298 298 300 302 304 306 307 307 310 314 310 302 297 264
230 229 226 226 226 225 225 225 225 226 226 227 226 226 228 230 230 231 232 232 232 232 232 232 232 231 233 235 237 241 246 253 263 277 292 299 299 298 298 300 302 304 306 309 310 306 304 314 318 312 293 211
233 233 233 233 233 230 227 226 226 226 227 227 226 226 227 228 230 230 231 232 232 232 232 233 233 233 233 235 236 240 244 251 262 276 291 299 300 298 298 301 302 305 311 317 323 320 315 317 326 327 282 221
235 236 237 237 237 234 230 228 229 229 229 229 228 227 227 227 229 230 231 232 232 233 233 234 233 233 233 234 236 238 242 249 260 274 291 300 302 300 299 302 304 309 315 323 332 333 328 325 332 344 270 279
234 234 234 233 233 234 233 231 230 230 230 230 229 228 228 228 228 229 231 231 232 233 233 233 232 231 232 233 234 236 240 248 258 274 291 301 302 300 301 304 308 312 318 327 335 337 335 332 334 343 322 315
231 231 230 229 227 228 229 230 229 229 229 228 228 229 228 228 229 229 230 231 232 232 232 231 231 230 231 231 233 235 239 246 257 272 289 299 301 301 302 305 309 313 320 329 336 339 338 335 326 321 328 327
230 231 231 230 228 227 226 226 226 227 228 228 228 229 228 228 229 229 230 230 231 231 231 230 230 230 230 230 232 233 237 244 255 270 285 295 300 301 301 303 306 308 318 327 334 337 334 331 323 322 330 332
230 231 232 234 234 234 232 229 228 228 229 230 231 231 230 228 229 229 230 230 231 230 230 229 229 228 229 229 230 232 237 243 252 264 276 288 296 299 298 300 302 303 311 323 329 332 329 327 326 326 330 328